Blue Star — LK8657 — position and weather

sailwx.info

Track history (hours):
 
Tides and Currents Weather Stations Pressure Air Temp Water Temp Dewpoint Dewpoint Depression Visibility Wind Speed Wind Dir Waves Ship Positions

Blue Star

Last reported at 2016-Jul-25 11:17 UTC. Time now 2016-Jul-28 02:54 UTC.
Position N 69°17' E 017°58'.

Length 11 m.

Type: Pleasure craft. MMSI: 258105360.

Date/timePositionNaut miles runAvg speedWind from/ knotsBaromVisibWave heightAir tempDewpointWater temp
2016-Jul-25 11:17N 69°17' E 017°58'2 3.0
2016-Jul-25 10:27N 69°14' E 017°59'0 0.0
2016-Jul-25 09:12N 69°14' E 017°59'0 0.0
2016-Jul-25 08:33N 69°14' E 017°59'0 0.0
2016-Jul-25 07:12N 69°14' E 017°59'0 0.0
2016-Jul-25 06:27N 69°14' E 017°59'0 0.0
2016-Jul-25 05:24N 69°14' E 017°59'0 0.0
2016-Jul-25 04:27N 69°14' E 017°59'0 0.0
2016-Jul-25 03:30N 69°14' E 017°59'0 0.0
2016-Jul-25 02:27N 69°14' E 017°59'0 0.0
2016-Jul-25 01:33N 69°14' E 017°59'0 0.0
2016-Jul-25 00:19N 69°14' E 017°59'0 0.0
2016-Jul-24 23:31N 69°14' E 017°59'0 0.0
2016-Jul-24 22:28N 69°14' E 017°59'0 0.0
2016-Jul-24 21:31N 69°14' E 017°59'0 0.0
2016-Jul-24 20:16N 69°14' E 017°59'0 0.0
2016-Jul-24 19:29N 69°14' E 017°59'4 4.3
2016-Jul-24 18:29N 69°10' E 017°57'9 8.1
2016-Jul-24 17:23N 69°05' E 017°36'  
2016-Jul-20 23:05N 67°31' E 014°46'0 0.0
2016-Jul-20 22:26N 67°31' E 014°46'0 0.0
2016-Jul-20 21:32N 67°31' E 014°46'10 3.3
2016-Jul-20 18:33N 67°23' E 014°31'7 7.3
2016-Jul-20 17:34N 67°17' E 014°22'0 0.1
2016-Jul-20 16:31N 67°17' E 014°22'0 0.0
2016-Jul-20 15:28N 67°17' E 014°22'0 0.0
2016-Jul-20 14:28N 67°17' E 014°22'0 0.0
2016-Jul-20 13:31N 67°17' E 014°22'0 0.0
2016-Jul-20 12:31N 67°17' E 014°22'0 0.0
2016-Jul-20 11:31N 67°17' E 014°22'0 0.0
2016-Jul-20 10:31N 67°17' E 014°22'0 0.0
2016-Jul-20 09:34N 67°17' E 014°22'0 0.0
2016-Jul-20 08:27N 67°17' E 014°22'0 0.0
2016-Jul-20 07:33N 67°17' E 014°22'0 0.0
2016-Jul-20 06:33N 67°17' E 014°22'0 0.0
2016-Jul-20 05:33N 67°17' E 014°22'0 0.0
2016-Jul-20 04:31N 67°17' E 014°22'0 0.0
2016-Jul-20 03:31N 67°17' E 014°22'0 0.0
2016-Jul-20 02:33N 67°17' E 014°22'0 0.0
2016-Jul-20 01:33N 67°17' E 014°22'0 0.0
2016-Jul-20 00:33N 67°17' E 014°22'0 0.0
2016-Jul-19 23:33N 67°17' E 014°22'0 0.0
2016-Jul-19 22:33N 67°17' E 014°22'0 0.0
2016-Jul-19 21:33N 67°17' E 014°22'0 0.0
2016-Jul-19 20:33N 67°17' E 014°22'0 0.0
2016-Jul-19 19:33N 67°17' E 014°22'0 0.0
2016-Jul-19 18:33N 67°17' E 014°22'0 0.0
2016-Jul-19 17:30N 67°17' E 014°22'0 0.0
2016-Jul-19 16:33N 67°17' E 014°22'0 0.0
2016-Jul-19 15:30N 67°17' E 014°22'0 0.0
2016-Jul-19 14:30N 67°17' E 014°22'0 0.0
2016-Jul-19 13:33N 67°17' E 014°22'0 0.0
2016-Jul-19 12:33N 67°17' E 014°22'0 0.0
2016-Jul-19 11:33N 67°17' E 014°22'0 0.0
2016-Jul-19 10:33N 67°17' E 014°22'0 0.0
2016-Jul-19 09:33N 67°17' E 014°22'0 0.0
2016-Jul-19 08:33N 67°17' E 014°22'0 0.0
2016-Jul-19 07:33N 67°17' E 014°22'0 0.0
2016-Jul-19 04:33N 67°17' E 014°22'0 0.0
2016-Jul-19 03:33N 67°17' E 014°22'0 0.0
2016-Jul-19 02:33N 67°17' E 014°22'0 0.0
2016-Jul-19 01:30N 67°17' E 014°22'0 0.0
2016-Jul-19 00:33N 67°17' E 014°22'0 0.0
2016-Jul-18 23:33N 67°17' E 014°22'0 0.0
2016-Jul-18 22:33N 67°17' E 014°22'0 0.0
2016-Jul-18 21:33N 67°17' E 014°22'0 0.0
2016-Jul-18 20:33N 67°17' E 014°22'0 0.0
2016-Jul-18 19:33N 67°17' E 014°22'0 0.0
2016-Jul-18 18:33N 67°17' E 014°22'0 0.0
2016-Jul-18 17:33N 67°17' E 014°22'0 0.0
2016-Jul-18 16:33N 67°17' E 014°22'0 0.0
2016-Jul-18 15:33N 67°17' E 014°22'0 0.0
2016-Jul-18 14:33N 67°17' E 014°22'0 0.0
2016-Jul-18 13:33N 67°17' E 014°22'0 0.0
2016-Jul-18 12:34N 67°17' E 014°22'0 0.0
2016-Jul-18 11:33N 67°17' E 014°22'0 0.0
2016-Jul-18 10:33N 67°17' E 014°22'0 0.0
2016-Jul-18 09:34N 67°17' E 014°22'0 0.0
2016-Jul-18 08:34N 67°17' E 014°22'0 0.0
2016-Jul-18 07:31N 67°17' E 014°22'0 0.0
2016-Jul-18 06:31N 67°17' E 014°22'0 0.0
2016-Jul-18 05:28N 67°17' E 014°22'0 0.0
2016-Jul-18 04:31N 67°17' E 014°22'0 0.0
2016-Jul-18 03:31N 67°17' E 014°22'0 0.0
2016-Jul-18 02:31N 67°17' E 014°22'0 0.0
2016-Jul-18 01:31N 67°17' E 014°22'0 0.0
2016-Jul-18 00:31N 67°17' E 014°22'0 0.0
2016-Jul-17 23:31N 67°17' E 014°22'0 0.0
2016-Jul-17 22:31N 67°17' E 014°22'0 0.0
2016-Jul-17 21:31N 67°17' E 014°22'0 0.0
2016-Jul-17 20:31N 67°17' E 014°22'0 0.0
2016-Jul-17 19:31N 67°17' E 014°22'0 0.0
2016-Jul-17 18:31N 67°17' E 014°22'0 0.0
2016-Jul-17 17:31N 67°17' E 014°22'0 0.0
2016-Jul-17 16:31N 67°17' E 014°22'0 0.0
2016-Jul-17 15:33N 67°17' E 014°22'7 7.3
2016-Jul-17 14:33N 67°12' E 014°08'  
Track history (hours):
 
Tides and Currents Weather Stations Pressure Air Temp Water Temp Dewpoint Dewpoint Depression Visibility Wind Speed Wind Dir Waves Ship Positions

Blue Star

Last reported at 2016-Jul-25 11:17 UTC. Time now 2016-Jul-28 02:54 UTC.
Position N 69°17' E 017°58'.

Length 11 m.

Type: Pleasure craft. MMSI: 258105360.

Date/timePositionNaut miles runAvg speedWind from/ knotsBaromVisibWave heightAir tempDewpointWater temp
2016-Jul-25 11:17N 69°17' E 017°58'2 3.0
2016-Jul-25 10:27N 69°14' E 017°59'0 0.0
2016-Jul-25 09:12N 69°14' E 017°59'0 0.0
2016-Jul-25 08:33N 69°14' E 017°59'0 0.0
2016-Jul-25 07:12N 69°14' E 017°59'0 0.0
2016-Jul-25 06:27N 69°14' E 017°59'0 0.0
2016-Jul-25 05:24N 69°14' E 017°59'0 0.0
2016-Jul-25 04:27N 69°14' E 017°59'0 0.0
2016-Jul-25 03:30N 69°14' E 017°59'0 0.0
2016-Jul-25 02:27N 69°14' E 017°59'0 0.0
2016-Jul-25 01:33N 69°14' E 017°59'0 0.0
2016-Jul-25 00:19N 69°14' E 017°59'0 0.0
2016-Jul-24 23:31N 69°14' E 017°59'0 0.0
2016-Jul-24 22:28N 69°14' E 017°59'0 0.0
2016-Jul-24 21:31N 69°14' E 017°59'0 0.0
2016-Jul-24 20:16N 69°14' E 017°59'0 0.0
2016-Jul-24 19:29N 69°14' E 017°59'4 4.3
2016-Jul-24 18:29N 69°10' E 017°57'9 8.1
2016-Jul-24 17:23N 69°05' E 017°36'  
2016-Jul-20 23:05N 67°31' E 014°46'0 0.0
2016-Jul-20 22:26N 67°31' E 014°46'0 0.0
2016-Jul-20 21:32N 67°31' E 014°46'10 3.3
2016-Jul-20 18:33N 67°23' E 014°31'7 7.3
2016-Jul-20 17:34N 67°17' E 014°22'0 0.1
2016-Jul-20 16:31N 67°17' E 014°22'0 0.0
2016-Jul-20 15:28N 67°17' E 014°22'0 0.0
2016-Jul-20 14:28N 67°17' E 014°22'0 0.0
2016-Jul-20 13:31N 67°17' E 014°22'0 0.0
2016-Jul-20 12:31N 67°17' E 014°22'0 0.0
2016-Jul-20 11:31N 67°17' E 014°22'0 0.0
2016-Jul-20 10:31N 67°17' E 014°22'0 0.0
2016-Jul-20 09:34N 67°17' E 014°22'0 0.0
2016-Jul-20 08:27N 67°17' E 014°22'0 0.0
2016-Jul-20 07:33N 67°17' E 014°22'0 0.0
2016-Jul-20 06:33N 67°17' E 014°22'0 0.0
2016-Jul-20 05:33N 67°17' E 014°22'0 0.0
2016-Jul-20 04:31N 67°17' E 014°22'0 0.0
2016-Jul-20 03:31N 67°17' E 014°22'0 0.0
2016-Jul-20 02:33N 67°17' E 014°22'0 0.0
2016-Jul-20 01:33N 67°17' E 014°22'0 0.0
2016-Jul-20 00:33N 67°17' E 014°22'0 0.0
2016-Jul-19 23:33N 67°17' E 014°22'0 0.0
2016-Jul-19 22:33N 67°17' E 014°22'0 0.0
2016-Jul-19 21:33N 67°17' E 014°22'0 0.0
2016-Jul-19 20:33N 67°17' E 014°22'0 0.0
2016-Jul-19 19:33N 67°17' E 014°22'0 0.0
2016-Jul-19 18:33N 67°17' E 014°22'0 0.0
2016-Jul-19 17:30N 67°17' E 014°22'0 0.0
2016-Jul-19 16:33N 67°17' E 014°22'0 0.0
2016-Jul-19 15:30N 67°17' E 014°22'0 0.0
2016-Jul-19 14:30N 67°17' E 014°22'0 0.0
2016-Jul-19 13:33N 67°17' E 014°22'0 0.0
2016-Jul-19 12:33N 67°17' E 014°22'0 0.0
2016-Jul-19 11:33N 67°17' E 014°22'0 0.0
2016-Jul-19 10:33N 67°17' E 014°22'0 0.0
2016-Jul-19 09:33N 67°17' E 014°22'0 0.0
2016-Jul-19 08:33N 67°17' E 014°22'0 0.0
2016-Jul-19 07:33N 67°17' E 014°22'0 0.0
2016-Jul-19 04:33N 67°17' E 014°22'0 0.0
2016-Jul-19 03:33N 67°17' E 014°22'0 0.0
2016-Jul-19 02:33N 67°17' E 014°22'0 0.0
2016-Jul-19 01:30N 67°17' E 014°22'0 0.0
2016-Jul-19 00:33N 67°17' E 014°22'0 0.0
2016-Jul-18 23:33N 67°17' E 014°22'0 0.0
2016-Jul-18 22:33N 67°17' E 014°22'0 0.0
2016-Jul-18 21:33N 67°17' E 014°22'0 0.0
2016-Jul-18 20:33N 67°17' E 014°22'0 0.0
2016-Jul-18 19:33N 67°17' E 014°22'0 0.0
2016-Jul-18 18:33N 67°17' E 014°22'0 0.0
2016-Jul-18 17:33N 67°17' E 014°22'0 0.0
2016-Jul-18 16:33N 67°17' E 014°22'0 0.0
2016-Jul-18 15:33N 67°17' E 014°22'0 0.0
2016-Jul-18 14:33N 67°17' E 014°22'0 0.0
2016-Jul-18 13:33N 67°17' E 014°22'0 0.0
2016-Jul-18 12:34N 67°17' E 014°22'0 0.0
2016-Jul-18 11:33N 67°17' E 014°22'0 0.0
2016-Jul-18 10:33N 67°17' E 014°22'0 0.0
2016-Jul-18 09:34N 67°17' E 014°22'0 0.0
2016-Jul-18 08:34N 67°17' E 014°22'0 0.0
2016-Jul-18 07:31N 67°17' E 014°22'0 0.0
2016-Jul-18 06:31N 67°17' E 014°22'0 0.0
2016-Jul-18 05:28N 67°17' E 014°22'0 0.0
2016-Jul-18 04:31N 67°17' E 014°22'0 0.0
2016-Jul-18 03:31N 67°17' E 014°22'0 0.0
2016-Jul-18 02:31N 67°17' E 014°22'0 0.0
2016-Jul-18 01:31N 67°17' E 014°22'0 0.0
2016-Jul-18 00:31N 67°17' E 014°22'0 0.0
2016-Jul-17 23:31N 67°17' E 014°22'0 0.0
2016-Jul-17 22:31N 67°17' E 014°22'0 0.0
2016-Jul-17 21:31N 67°17' E 014°22'0 0.0
2016-Jul-17 20:31N 67°17' E 014°22'0 0.0
2016-Jul-17 19:31N 67°17' E 014°22'0 0.0
2016-Jul-17 18:31N 67°17' E 014°22'0 0.0
2016-Jul-17 17:31N 67°17' E 014°22'0 0.0
2016-Jul-17 16:31N 67°17' E 014°22'0 0.0
2016-Jul-17 15:33N 67°17' E 014°22'7 7.3
2016-Jul-17 14:33N 67°12' E 014°08'  

Dump ship's entire track history